Hourly Data Report for August 11, 2015

All times are specified in Local Standard Time (LST). Add 1 hour to adjust for Daylight Saving Time where and when it is observed.

TORONTO INTL A
ONTARIO

43°40'36.000" N
79°37'50.000" W
173.40 m
6158731
71624
YYZ

Download Data

Hourly Data (August 2015)
Hourly Data Report for August 11, 2015
Temp Definition
°C
Dew Point Temp Definition
°C
Rel Hum Definition
%
Wind Dir Definition
10's deg

Wind Spd Definition
km/h
Visibility Definition
km
Stn Press Definition
kPa
Hmdx Definition


Wind Chill Definition


Weather Definition


TIME
00:00 Legend Double Dagger 18.6 17.3 92 32 10 9.7 98.75     Fog
01:00 Legend Double Dagger 18.6 17.3 92 34 23 9.7 98.72     Fog
02:00 Legend Double Dagger 18.1 16.6 91 31 16 16.1 98.72     LegendNANA
03:00 Legend Double Dagger 18.4 16.8 90 33 16 19.3 98.72     LegendNANA
04:00 Legend Double Dagger 18.3 16.3 88 33 20 24.1 98.69     Mostly Cloudy
05:00 Legend Double Dagger 18.3 16.5 89 32 26 24.1 98.73     LegendNANA
06:00 Legend Double Dagger 18.9 16.7 87 33 20 24.1 98.78     LegendNANA
07:00 Legend Double Dagger 19.7 17.0 84 34 24 24.1 98.86     Mainly Clear
08:00 Legend Double Dagger 20.9 17.0 78 34 26 24.1 98.90 26   LegendNANA
09:00 Legend Double Dagger 21.4 16.0 71 34 28 24.1 98.93 26   LegendNANA
10:00 Legend Double Dagger 23.0 15.7 63 32 23 24.1 98.97 27   Mainly Clear
11:00 Legend Double Dagger 23.5 15.4 60 33 16 24.1 98.99 28   LegendNANA
12:00 Legend Double Dagger 24.4 15.5 57 28 19 24.1 98.99 29   LegendNANA
13:00 Legend Double Dagger 24.5 15.8 58 30 24 24.1 98.96 29   Mostly Cloudy
14:00 Legend Double Dagger 25.7 15.9 54 28 32 24.1 98.95 30   LegendNANA
15:00 Legend Double Dagger 25.4 16.4 57 30 25 24.1 98.96 30   LegendNANA
16:00 Legend Double Dagger 25.9 16.1 54 32 27 24.1 98.97 31   Mostly Cloudy
17:00 Legend Double Dagger 23.0 16.7 67 35 25 24.1 99.01 28   LegendNANA
18:00 Legend Double Dagger 22.3 16.0 67 36 29 24.1 99.07 27   LegendNANA
19:00 Legend Double Dagger 21.5 15.0 66 33 30 24.1 99.09 25   Mostly Cloudy
20:00 Legend Double Dagger 20.9 14.9 68 33 26 24.1 99.13 25   LegendNANA
21:00 Legend Double Dagger 20.1 14.3 69 32 32 24.1 99.17     LegendNANA
22:00 Legend Double Dagger 19.0 14.9 77 31 22 24.1 99.21     Mainly Clear
23:00 Legend Double Dagger 18.5 14.5 77 30 19 24.1 99.22     LegendNANA

Notes on Data Quality.

Legend

  • E = Estimated
  • M = Missing
  • NA = Not Available
  • ‡ = Partner data that is not subject to review by the National Climate Archives
Date modified: